(136472) Makemake
ephemeris date magn radius delta ra dec elong phase
Today15 Oct 202517.152.716 AU53.589 AU13h24m+20°11'28.6°0.5°
Opposition1 Apr 202617.052.725 AU51.838 AU13h26m+20°56'152.3°0.5°
(136472) Makemake - 2025-10-15
astro.vanbuitenen.nl


 
-1 year
-1 month
-1 day
Now
+1 day
+1 month
+1 year

The interactive orbit chart above shows the body's path through the solar system and its position at the given date. Green and blue lines are shown perpendicular to the ecliptic plane: Green if the path is above the ecliptic plane, blue if it is below. (Left-click and drag to rotate the view; Right-click and drag to move the view; Use scroll wheel to zoom in our out.)

The orbital elements of Makemake are:

            e (Eccentricity)                : 0.1619387
            a (Semimajor axis)              : 45.4496818
            i (Inclination)                 : 29.03386
            Ω (Longitude of ascending node) : 79.25978
            ω (Argument of perihelion)      : 296.95325
            M (Mean anomaly)                : 168.82371
            Epoch                           : 2025 May 05

            L (Longitude of perihelion)     : 19.44138
            B (Latitude of perihelion)      : -25.63322
            P (Orbital period in years)     : 306.41            
        

The light curve chart below shows the estimated development of the minor planet's magnitude.


The all-sky chart below shows the path of the minor planet over the same period as the light curve. The current position is marked yellow.





The following chart shows the path of the minor planet in the next few days. The field of view is optimized for (~10x50) binoculars and finderscopes. A more printer-friendly version of the same chart can be found below.




Ephemerides:
Date       Time       RA (2000)    DEC (2000)    delta   radius  elong  phase   PA    magn
2025-10-15 00:00 UT   13 24 21.8   +20 11 19    53.589   52.716   28.6    0.5     2   17.1 
2025-10-15 05:44 UT   13 24 22.9   +20 11 13    53.588   52.716   28.7    0.5     2   17.1 
2025-10-16 00:00 UT   13 24 26.6   +20 10 53    53.586   52.716   28.9    0.5     1   17.1 
2025-10-17 00:00 UT   13 24 31.5   +20 10 27    53.583   52.716   29.3    0.5   359   17.1 
2025-10-18 00:00 UT   13 24 36.4   +20 10 02    53.579   52.716   29.7    0.5   357   17.1 
2025-10-19 00:00 UT   13 24 41.2   +20 09 37    53.575   52.716   30.1    0.5   355   17.1 
2025-10-20 00:00 UT   13 24 46.1   +20 09 13    53.571   52.716   30.6    0.6   353   17.1 
2025-10-21 00:00 UT   13 24 51.0   +20 08 50    53.567   52.716   31.0    0.6   352   17.1 
2025-10-22 00:00 UT   13 24 55.8   +20 08 27    53.562   52.716   31.5    0.6   350   17.1 
2025-10-23 00:00 UT   13 25 00.7   +20 08 04    53.557   52.716   32.0    0.6   349   17.1 
2025-10-24 00:00 UT   13 25 05.5   +20 07 43    53.552   52.716   32.5    0.6   347   17.1 
2025-10-25 00:00 UT   13 25 10.3   +20 07 22    53.547   52.716   33.1    0.6   345   17.1 
2025-10-26 00:00 UT   13 25 15.1   +20 07 01    53.541   52.716   33.6    0.6   344   17.1 
2025-10-27 00:00 UT   13 25 19.9   +20 06 41    53.535   52.716   34.2    0.6   343   17.1 
2025-10-28 00:00 UT   13 25 24.7   +20 06 22    53.529   52.716   34.8    0.6   341   17.1 
2025-10-29 00:00 UT   13 25 29.5   +20 06 03    53.523   52.716   35.4    0.6   340   17.1 
2025-10-30 00:00 UT   13 25 34.3   +20 05 45    53.516   52.716   36.0    0.6   339   17.1 
2025-10-31 00:00 UT   13 25 39.0   +20 05 28    53.510   52.717   36.7    0.6   337   17.1 
2025-11-01 00:00 UT   13 25 43.7   +20 05 11    53.503   52.717   37.3    0.7   336   17.1 
2025-11-02 00:00 UT   13 25 48.5   +20 04 55    53.495   52.717   38.0    0.7   335   17.1 
2025-11-03 00:00 UT   13 25 53.1   +20 04 39    53.488   52.717   38.6    0.7   334   17.1 
2025-11-04 00:00 UT   13 25 57.8   +20 04 24    53.480   52.717   39.3    0.7   333   17.1 
2025-11-05 00:00 UT   13 26 02.4   +20 04 10    53.472   52.717   40.0    0.7   332   17.1 
2025-11-06 00:00 UT   13 26 07.1   +20 03 56    53.464   52.717   40.7    0.7   331   17.1 
2025-11-07 00:00 UT   13 26 11.7   +20 03 43    53.456   52.717   41.4    0.7   330   17.1 
2025-11-08 00:00 UT   13 26 16.2   +20 03 31    53.447   52.717   42.2    0.7   329   17.1 
2025-11-09 00:00 UT   13 26 20.8   +20 03 19    53.438   52.717   42.9    0.7   328   17.1 
2025-11-10 00:00 UT   13 26 25.3   +20 03 08    53.429   52.717   43.6    0.7   327   17.1 
2025-11-11 00:00 UT   13 26 29.7   +20 02 58    53.420   52.717   44.4    0.8   326   17.1 
2025-11-12 00:00 UT   13 26 34.2   +20 02 48    53.411   52.717   45.2    0.8   325   17.1 
2025-11-13 00:00 UT   13 26 38.6   +20 02 39    53.401   52.717   45.9    0.8   324   17.1 
2025-11-14 00:00 UT   13 26 43.0   +20 02 30    53.391   52.717   46.7    0.8   323   17.1 


    Terminology:
            
    delta:  distance between minor planet and earth in AU
    radius: distance between minor planet and sun in AU
    magn:   magnitude (brightness) estimate    
    ra:     right ascension in hours (24h = 360deg)
    dec:    declination in degrees
    elong:  elongation in degrees (angle sun-earth-minor planet)    
    phase:  phase angle in degrees (angle sun-minor planet-earth)        
    AU:     Astronomical Unit (mean distance between earth and sun: 149597870.7 km
    

Orbital elements provided by the MPC (Minor Planet Center).
Calculations by a modified version of AAPlus, a C# implementation of the AA+ project by PJ Naughter from the algorithms presented in the book "Astronomical Algorithms" by Jean Meeus.
NGC2000 dso catalog and star labels from VizieR as provided by the Strasbourg astronomical Data Center.
Tycho2 catalog from the ESO archive.